VIV321 MMMY-MMGL

Flight info

Callsign VIV321
Flight time 1h 16m
Altitude 36000
Route URTOB1A URTOB UJ11 MEZCA MEZCA1B
Aircraft A21N/M-SDE2E3FGHIRWXY/LB1

Departure

Time 2026-04-22 02:04
Airport Monterrey International Airport (MMMY)

Arrival

Time 2026-04-22 03:20
Airport Guadalajara International Airport (MMGL)
Time Latitude Longitude Altitude Speed Heading
2026-04-22 01:31 25.77999 -100.11739 1281 ft 0 kts 185°
2026-04-22 01:53 25.78016 -100.11737 1281 ft 4 kts 185°
2026-04-22 01:53 25.78043 -100.11735 1281 ft 4 kts 184°
2026-04-22 01:54 25.78067 -100.11731 1281 ft 4 kts 220°
2026-04-22 01:54 25.78067 -100.11745 1281 ft 2 kts 256°
2026-04-22 01:54 25.78073 -100.11720 1281 ft 1 kts 256°
2026-04-22 01:54 25.78073 -100.11719 1281 ft 0 kts 256°
2026-04-22 01:59 25.78073 -100.11720 1281 ft 0 kts 256°
2026-04-22 01:59 25.78072 -100.11728 1281 ft 1 kts 260°
2026-04-22 01:59 25.78074 -100.11741 1281 ft 2 kts 281°
2026-04-22 01:59 25.78080 -100.11760 1281 ft 3 kts 294°
2026-04-22 02:00 25.78092 -100.11786 1281 ft 4 kts 300°
2026-04-22 02:00 25.78109 -100.11816 1283 ft 5 kts 303°
2026-04-22 02:00 25.78130 -100.11850 1281 ft 4 kts 306°
2026-04-22 02:00 25.78152 -100.11870 1283 ft 4 kts 334°
2026-04-22 02:01 25.78182 -100.11865 1281 ft 5 kts 23°
2026-04-22 02:01 25.78211 -100.11846 1283 ft 5 kts 31°
2026-04-22 02:01 25.78239 -100.11827 1282 ft 5 kts 32°
2026-04-22 02:01 25.78272 -100.11804 1283 ft 6 kts 32°
2026-04-22 02:02 25.78311 -100.11777 1282 ft 7 kts 32°
2026-04-22 02:02 25.78356 -100.11746 1283 ft 8 kts 31°
2026-04-22 02:02 25.78392 -100.11701 1281 ft 8 kts 77°
2026-04-22 02:02 25.78376 -100.11644 1282 ft 2 kts 118°
2026-04-22 02:03 25.78304 -100.11497 1281 ft 56 kts 119°
2026-04-22 02:03 25.77981 -100.10913 1281 ft 120 kts 121°
2026-04-22 02:03 25.77453 -100.09948 1277 ft 171 kts 121°
2026-04-22 02:04 25.76286 -100.07563 2491 ft 175 kts 118°
2026-04-22 02:04 25.75689 -100.06402 2992 ft 176 kts 119°
2026-04-22 02:04 25.75046 -100.05168 3161 ft 192 kts 120°
2026-04-22 02:05 25.74356 -100.03843 3303 ft 205 kts 121°
2026-04-22 02:05 25.73635 -100.02453 3589 ft 207 kts 121°
2026-04-22 02:05 25.72935 -100.01093 4084 ft 200 kts 121°
2026-04-22 02:05 25.72254 -99.99764 4579 ft 196 kts 121°
2026-04-22 02:06 25.71595 -99.98465 5061 ft 192 kts 121°
2026-04-22 02:06 25.70935 -99.97169 5463 ft 194 kts 122°
2026-04-22 02:06 25.70191 -99.95921 5873 ft 195 kts 135°
2026-04-22 02:06 25.69120 -99.94999 6250 ft 198 kts 154°
2026-04-22 02:07 25.67790 -99.94531 6610 ft 207 kts 174°
2026-04-22 02:07 25.66289 -99.94678 6756 ft 230 kts 201°
2026-04-22 02:07 25.64958 -99.95779 6919 ft 255 kts 232°
2026-04-22 02:07 25.63960 -99.97467 7191 ft 271 kts 236°
2026-04-22 02:08 25.62964 -99.99277 7760 ft 277 kts 237°
2026-04-22 02:08 25.61969 -100.01116 8404 ft 279 kts 237°
2026-04-22 02:08 25.60968 -100.02965 9030 ft 282 kts 237°
2026-04-22 02:08 25.59949 -100.04834 9664 ft 283 kts 238°
2026-04-22 02:09 25.58924 -100.06708 10177 ft 289 kts 238°
2026-04-22 02:09 25.57846 -100.08675 10288 ft 310 kts 239°
2026-04-22 02:09 25.56690 -100.10783 10433 ft 328 kts 239°
2026-04-22 02:09 25.55472 -100.12999 10639 ft 342 kts 239°
2026-04-22 02:10 25.54218 -100.15265 11134 ft 347 kts 239°
2026-04-22 02:10 25.52950 -100.17550 11663 ft 350 kts 239°
2026-04-22 02:10 25.51668 -100.19859 12276 ft 352 kts 240°
2026-04-22 02:10 25.50383 -100.22176 12845 ft 354 kts 241°
2026-04-22 02:11 25.49093 -100.24504 13395 ft 356 kts 240°
2026-04-22 02:11 25.47796 -100.26848 13921 ft 358 kts 240°
2026-04-22 02:11 25.46492 -100.29206 14489 ft 361 kts 241°
2026-04-22 02:11 25.45174 -100.31579 15070 ft 363 kts 240°
2026-04-22 02:12 25.43846 -100.33966 15626 ft 365 kts 241°
2026-04-22 02:12 25.42532 -100.36324 16143 ft 366 kts 241°
2026-04-22 02:12 25.41190 -100.38736 16625 ft 370 kts 241°
2026-04-22 02:12 25.39839 -100.41174 17175 ft 371 kts 241°
2026-04-22 02:13 25.38432 -100.43583 17670 ft 376 kts 235°
2026-04-22 02:13 25.36633 -100.45713 18187 ft 382 kts 224°
2026-04-22 02:13 25.34535 -100.47542 18682 ft 386 kts 221°
2026-04-22 02:13 25.32404 -100.49374 19177 ft 388 kts 221°
2026-04-22 02:14 25.30265 -100.51216 19650 ft 390 kts 221°
2026-04-22 02:14 25.28120 -100.53068 20122 ft 393 kts 221°
2026-04-22 02:14 25.25966 -100.54928 20598 ft 395 kts 221°
2026-04-22 02:14 25.23788 -100.56806 21053 ft 397 kts 222°
2026-04-22 02:15 25.21618 -100.58674 21478 ft 399 kts 222°
2026-04-22 02:15 25.19410 -100.60574 21903 ft 401 kts 222°
2026-04-22 02:15 25.17230 -100.62451 22288 ft 404 kts 222°
2026-04-22 02:15 25.15010 -100.64364 22694 ft 406 kts 222°
2026-04-22 02:16 25.12777 -100.66285 23069 ft 407 kts 222°
2026-04-22 02:16 25.10535 -100.68211 23419 ft 410 kts 222°
2026-04-22 02:16 25.08278 -100.70149 23775 ft 411 kts 222°
2026-04-22 02:16 25.06016 -100.72091 24135 ft 413 kts 222°
2026-04-22 02:17 25.03746 -100.74039 24499 ft 415 kts 222°
2026-04-22 02:17 25.01462 -100.76001 24855 ft 416 kts 223°
2026-04-22 02:17 24.99176 -100.77969 25197 ft 418 kts 223°
2026-04-22 02:17 24.96881 -100.79944 25532 ft 419 kts 222°
2026-04-22 02:18 24.94579 -100.81918 25871 ft 421 kts 222°
2026-04-22 02:18 24.92262 -100.83899 26220 ft 422 kts 222°
2026-04-22 02:18 24.89936 -100.85886 26547 ft 424 kts 222°
2026-04-22 02:18 24.87606 -100.87876 26857 ft 426 kts 223°
2026-04-22 02:19 24.85261 -100.89884 27172 ft 427 kts 223°
2026-04-22 02:19 24.82901 -100.91905 27479 ft 429 kts 223°
2026-04-22 02:19 24.80546 -100.93920 27783 ft 430 kts 223°
2026-04-22 02:19 24.78177 -100.95942 28106 ft 431 kts 223°
2026-04-22 02:20 24.75802 -100.97965 28401 ft 432 kts 223°
2026-04-22 02:20 24.73418 -100.99993 28710 ft 434 kts 223°
2026-04-22 02:20 24.71062 -101.02000 28989 ft 435 kts 223°
2026-04-22 02:20 24.68668 -101.04042 29263 ft 436 kts 223°
2026-04-22 02:21 24.66233 -101.06122 29548 ft 438 kts 223°
2026-04-22 02:21 24.63860 -101.08150 29825 ft 439 kts 223°
2026-04-22 02:21 24.61439 -101.10213 30185 ft 438 kts 223°
2026-04-22 02:21 24.59038 -101.12255 30593 ft 436 kts 223°
2026-04-22 02:22 24.56645 -101.14289 31011 ft 434 kts 223°
2026-04-22 02:22 24.54267 -101.16308 31436 ft 431 kts 223°
2026-04-22 02:22 24.51891 -101.18324 31831 ft 429 kts 223°
2026-04-22 02:22 24.49538 -101.20324 32214 ft 427 kts 223°
2026-04-22 02:23 24.47190 -101.22317 32582 ft 424 kts 223°
2026-04-22 02:23 24.44889 -101.24267 32936 ft 422 kts 223°
2026-04-22 02:23 24.42572 -101.26233 33289 ft 420 kts 223°
2026-04-22 02:23 24.40260 -101.28191 33637 ft 418 kts 223°
2026-04-22 02:24 24.37966 -101.30134 33964 ft 416 kts 223°
2026-04-22 02:24 24.35681 -101.32068 34282 ft 414 kts 222°
2026-04-22 02:24 24.33404 -101.33992 34581 ft 413 kts 222°
2026-04-22 02:24 24.31130 -101.35914 34845 ft 412 kts 222°
2026-04-22 02:25 24.28865 -101.37832 35105 ft 411 kts 222°
2026-04-22 02:25 24.26605 -101.39750 35344 ft 411 kts 222°
2026-04-22 02:25 24.24347 -101.41667 35590 ft 410 kts 222°
2026-04-22 02:25 24.22094 -101.43576 35840 ft 409 kts 222°
2026-04-22 02:26 24.19840 -101.45478 36075 ft 409 kts 222°
2026-04-22 02:26 24.17566 -101.47366 36197 ft 411 kts 219°
2026-04-22 02:26 24.15063 -101.48928 36231 ft 417 kts 209°
2026-04-22 02:27 24.09549 -101.50963 36229 ft 422 kts 204°
2026-04-22 02:27 24.03940 -101.52891 36228 ft 422 kts 204°
2026-04-22 02:28 23.98328 -101.54837 36234 ft 422 kts 204°
2026-04-22 02:28 23.92712 -101.56777 36238 ft 423 kts 204°
2026-04-22 02:29 23.87088 -101.58716 36243 ft 424 kts 204°
2026-04-22 02:29 23.81457 -101.60654 36248 ft 424 kts 204°
2026-04-22 02:30 23.75861 -101.62582 36254 ft 424 kts 204°
2026-04-22 02:30 23.70230 -101.64524 36258 ft 424 kts 204°
2026-04-22 02:31 23.64592 -101.66456 36261 ft 425 kts 203°
2026-04-22 02:31 23.58956 -101.68391 36264 ft 425 kts 204°
2026-04-22 02:32 23.53323 -101.70329 36265 ft 425 kts 203°
2026-04-22 02:32 23.47669 -101.72278 36270 ft 425 kts 203°
2026-04-22 02:33 23.42963 -101.73884 36273 ft 426 kts 203°
2026-04-22 02:33 23.37300 -101.75811 36274 ft 427 kts 203°
2026-04-22 02:34 23.31628 -101.77753 36277 ft 427 kts 203°
2026-04-22 02:34 23.25985 -101.79678 36279 ft 427 kts 203°
2026-04-22 02:35 23.20300 -101.81617 36281 ft 428 kts 203°
2026-04-22 02:35 23.14610 -101.83562 36282 ft 428 kts 203°
2026-04-22 02:36 23.08915 -101.85505 36291 ft 429 kts 203°
2026-04-22 02:36 23.03212 -101.87451 36294 ft 430 kts 203°
2026-04-22 02:37 22.97502 -101.89396 36296 ft 430 kts 202°
2026-04-22 02:37 22.91779 -101.91332 36297 ft 431 kts 202°
2026-04-22 02:38 22.86055 -101.93269 36299 ft 431 kts 202°
2026-04-22 02:38 22.80357 -101.95202 36298 ft 432 kts 202°
2026-04-22 02:39 22.74620 -101.97143 36296 ft 432 kts 202°
2026-04-22 02:39 22.68873 -101.99081 36296 ft 433 kts 202°
2026-04-22 02:40 22.63117 -102.01027 36297 ft 434 kts 202°
2026-04-22 02:40 22.57351 -102.02979 36299 ft 434 kts 202°
2026-04-22 02:41 22.51576 -102.04923 36305 ft 435 kts 202°
2026-04-22 02:41 22.45803 -102.06872 36304 ft 435 kts 202°
2026-04-22 02:42 22.40007 -102.08831 36307 ft 436 kts 202°
2026-04-22 02:42 22.34210 -102.10783 36309 ft 437 kts 202°
2026-04-22 02:43 22.28399 -102.12729 36316 ft 437 kts 202°
2026-04-22 02:43 22.22621 -102.14667 36323 ft 438 kts 202°
2026-04-22 02:44 22.16768 -102.16641 36319 ft 438 kts 201°
2026-04-22 02:44 22.10952 -102.18599 36328 ft 438 kts 201°
2026-04-22 02:45 22.05168 -102.20536 36324 ft 438 kts 201°
2026-04-22 02:45 21.99337 -102.22477 36336 ft 439 kts 201°
2026-04-22 02:46 21.93508 -102.24427 36334 ft 439 kts 201°
2026-04-22 02:46 21.87669 -102.26381 35931 ft 441 kts 201°
2026-04-22 02:46 21.84715 -102.27374 34989 ft 449 kts 201°
2026-04-22 02:47 21.81716 -102.28380 34096 ft 454 kts 201°
2026-04-22 02:47 21.78683 -102.29393 33233 ft 458 kts 201°
2026-04-22 02:47 21.75640 -102.30406 32594 ft 457 kts 201°
2026-04-22 02:47 21.72646 -102.31498 32069 ft 450 kts 207°
2026-04-22 02:48 21.69902 -102.33048 31527 ft 441 kts 217°
2026-04-22 02:48 21.67462 -102.35002 30997 ft 435 kts 222°
2026-04-22 02:48 21.65120 -102.36990 30478 ft 432 kts 222°
2026-04-22 02:48 21.62762 -102.38979 29944 ft 428 kts 222°
2026-04-22 02:49 21.60444 -102.40927 29422 ft 417 kts 222°
2026-04-22 02:49 21.58184 -102.42822 28927 ft 409 kts 222°
2026-04-22 02:49 21.55946 -102.44703 28416 ft 407 kts 222°
2026-04-22 02:49 21.53729 -102.46569 27927 ft 404 kts 221°
2026-04-22 02:50 21.51526 -102.48427 27438 ft 401 kts 221°
2026-04-22 02:50 21.49341 -102.50269 26963 ft 398 kts 221°
2026-04-22 02:50 21.47165 -102.52100 26482 ft 396 kts 221°
2026-04-22 02:50 21.45000 -102.53919 26013 ft 393 kts 221°
2026-04-22 02:51 21.42856 -102.55723 25559 ft 391 kts 221°
2026-04-22 02:51 21.40713 -102.57526 25107 ft 389 kts 221°
2026-04-22 02:51 21.38589 -102.59308 24675 ft 387 kts 221°
2026-04-22 02:51 21.36501 -102.61059 24349 ft 385 kts 221°
2026-04-22 02:52 21.34356 -102.62856 23819 ft 396 kts 220°
2026-04-22 02:52 21.32207 -102.64650 23366 ft 389 kts 221°
2026-04-22 02:52 21.30076 -102.66434 22890 ft 388 kts 220°
2026-04-22 02:52 21.27953 -102.68217 22366 ft 387 kts 220°
2026-04-22 02:53 21.25829 -102.70004 21837 ft 386 kts 219°
2026-04-22 02:53 21.23713 -102.71782 21325 ft 384 kts 220°
2026-04-22 02:53 21.21632 -102.73518 20825 ft 378 kts 220°
2026-04-22 02:53 21.19556 -102.75255 20320 ft 377 kts 220°
2026-04-22 02:54 21.17509 -102.76968 19815 ft 370 kts 219°
2026-04-22 02:54 21.15493 -102.78651 19310 ft 366 kts 219°
2026-04-22 02:54 21.13317 -102.80091 18789 ft 369 kts 205°
2026-04-22 02:54 21.10862 -102.80956 17991 ft 371 kts 190°
2026-04-22 02:55 21.08328 -102.81146 17493 ft 363 kts 178°
2026-04-22 02:55 21.05821 -102.80826 17009 ft 362 kts 173°
2026-04-22 02:55 21.03348 -102.80458 16528 ft 359 kts 172°
2026-04-22 02:55 21.00871 -102.80092 16043 ft 359 kts 173°
2026-04-22 02:56 20.98400 -102.79736 15552 ft 359 kts 174°
2026-04-22 02:56 20.95923 -102.79368 15050 ft 359 kts 173°
2026-04-22 02:56 20.93455 -102.78990 14584 ft 360 kts 173°
2026-04-22 02:56 20.91001 -102.78587 14100 ft 352 kts 172°
2026-04-22 02:57 20.88596 -102.78190 13648 ft 348 kts 173°
2026-04-22 02:57 20.86281 -102.77827 13428 ft 329 kts 173°
2026-04-22 02:57 20.84058 -102.77468 13258 ft 313 kts 172°
2026-04-22 02:57 20.81966 -102.77132 13082 ft 302 kts 173°
2026-04-22 02:58 20.79876 -102.76789 12965 ft 302 kts 172°
2026-04-22 02:58 20.77789 -102.76436 12979 ft 306 kts 173°
2026-04-22 02:58 20.75706 -102.76093 12974 ft 300 kts 172°
2026-04-22 02:58 20.73625 -102.75764 13001 ft 302 kts 173°
2026-04-22 02:59 20.71568 -102.75223 12992 ft 308 kts 158°
2026-04-22 02:59 20.69724 -102.74106 12986 ft 307 kts 143°
2026-04-22 02:59 20.68005 -102.72726 12972 ft 308 kts 144°
2026-04-22 02:59 20.66291 -102.71356 12963 ft 306 kts 143°
2026-04-22 03:00 20.64578 -102.69994 12980 ft 308 kts 144°
2026-04-22 03:00 20.62867 -102.68632 12968 ft 307 kts 143°
2026-04-22 03:00 20.61161 -102.67264 12977 ft 307 kts 143°
2026-04-22 03:00 20.59453 -102.65890 12991 ft 306 kts 142°
2026-04-22 03:01 20.57761 -102.64541 12977 ft 298 kts 142°
2026-04-22 03:01 20.56095 -102.63234 12984 ft 296 kts 146°
2026-04-22 03:01 20.54251 -102.62273 12976 ft 298 kts 163°
2026-04-22 03:01 20.52264 -102.61854 12985 ft 292 kts 174°
2026-04-22 03:02 20.50232 -102.61601 12985 ft 294 kts 174°
2026-04-22 03:02 20.48199 -102.61341 12972 ft 293 kts 174°
2026-04-22 03:02 20.46205 -102.61078 12970 ft 289 kts 173°
2026-04-22 03:02 20.44196 -102.60822 12972 ft 293 kts 174°
2026-04-22 03:03 20.42162 -102.60570 12974 ft 294 kts 173°
2026-04-22 03:03 20.40128 -102.60311 12970 ft 295 kts 174°
2026-04-22 03:03 20.38088 -102.60051 12964 ft 295 kts 174°
2026-04-22 03:03 20.36054 -102.59805 12964 ft 292 kts 176°
2026-04-22 03:04 20.34024 -102.59868 12958 ft 293 kts 192°
2026-04-22 03:04 20.32095 -102.60481 12962 ft 288 kts 205°
2026-04-22 03:04 20.30242 -102.61334 12957 ft 289 kts 205°
2026-04-22 03:04 20.28405 -102.62184 12958 ft 290 kts 205°
2026-04-22 03:05 20.26523 -102.63041 12972 ft 296 kts 204°
2026-04-22 03:05 20.24636 -102.63894 12903 ft 295 kts 203°
2026-04-22 03:05 20.22761 -102.64738 12630 ft 290 kts 204°
2026-04-22 03:05 20.20907 -102.65577 12465 ft 288 kts 205°
2026-04-22 03:06 20.19057 -102.66411 12330 ft 288 kts 202°
2026-04-22 03:06 20.17211 -102.67242 12194 ft 286 kts 203°
2026-04-22 03:06 20.15469 -102.68227 12063 ft 281 kts 219°
2026-04-22 03:06 20.14048 -102.69634 11939 ft 282 kts 232°
2026-04-22 03:07 20.12856 -102.71295 11811 ft 285 kts 236°
2026-04-22 03:07 20.11684 -102.72950 11692 ft 282 kts 233°
2026-04-22 03:07 20.10510 -102.74611 11505 ft 279 kts 234°
2026-04-22 03:07 20.09347 -102.76255 11289 ft 278 kts 235°
2026-04-22 03:08 20.08175 -102.77899 11090 ft 277 kts 234°
2026-04-22 03:08 20.07031 -102.79530 10880 ft 273 kts 235°
2026-04-22 03:08 20.05921 -102.81173 10691 ft 274 kts 242°
2026-04-22 03:08 20.05298 -102.83071 10514 ft 271 kts 265°
2026-04-22 03:09 20.05449 -102.85054 10336 ft 269 kts 288°
2026-04-22 03:09 20.06312 -102.86789 10094 ft 266 kts 310°
2026-04-22 03:09 20.07756 -102.87995 9901 ft 263 kts 333°
2026-04-22 03:09 20.09454 -102.88739 9775 ft 266 kts 338°
2026-04-22 03:10 20.11174 -102.89456 9645 ft 266 kts 338°
2026-04-22 03:10 20.12927 -102.90191 9511 ft 268 kts 336°
2026-04-22 03:10 20.14626 -102.90919 9396 ft 267 kts 336°
2026-04-22 03:10 20.16347 -102.91665 9268 ft 266 kts 336°
2026-04-22 03:11 20.18057 -102.92396 9140 ft 267 kts 337°
2026-04-22 03:11 20.19773 -102.93116 9008 ft 264 kts 338°
2026-04-22 03:11 20.21482 -102.93851 8956 ft 261 kts 335°
2026-04-22 03:11 20.23179 -102.94592 9025 ft 265 kts 337°
2026-04-22 03:12 20.24897 -102.95330 9020 ft 267 kts 336°
2026-04-22 03:12 20.28336 -102.96797 9002 ft 265 kts 337°
2026-04-22 03:12 20.30036 -102.97530 9009 ft 265 kts 337°
2026-04-22 03:13 20.31747 -102.98265 9021 ft 265 kts 336°
2026-04-22 03:13 20.33462 -102.98993 9019 ft 266 kts 337°
2026-04-22 03:13 20.35174 -102.99734 9011 ft 265 kts 336°
2026-04-22 03:13 20.36879 -103.00474 9031 ft 263 kts 338°
2026-04-22 03:14 20.38552 -103.01256 9045 ft 257 kts 328°
2026-04-22 03:14 20.39904 -103.02464 9027 ft 254 kts 309°
2026-04-22 03:14 20.40791 -103.04062 8897 ft 254 kts 292°
2026-04-22 03:14 20.41500 -103.05759 8796 ft 251 kts 294°
2026-04-22 03:15 20.42223 -103.07458 8684 ft 250 kts 294°
2026-04-22 03:15 20.42919 -103.09115 8471 ft 239 kts 293°
2026-04-22 03:15 20.43359 -103.10161 8339 ft 228 kts 292°
2026-04-22 03:15 20.44189 -103.12126 8136 ft 205 kts 294°
2026-04-22 03:16 20.44569 -103.13025 8021 ft 197 kts 293°
2026-04-22 03:16 20.45117 -103.14324 7810 ft 188 kts 293°
2026-04-22 03:16 20.45647 -103.15582 7590 ft 184 kts 293°
2026-04-22 03:16 20.46168 -103.16819 7367 ft 182 kts 293°
2026-04-22 03:17 20.46684 -103.18042 7168 ft 179 kts 291°
2026-04-22 03:17 20.47191 -103.19244 6930 ft 176 kts 291°
2026-04-22 03:17 20.47687 -103.20425 6705 ft 172 kts 295°
2026-04-22 03:17 20.48169 -103.21566 6496 ft 167 kts 294°
2026-04-22 03:18 20.48641 -103.22687 6291 ft 164 kts 292°
2026-04-22 03:18 20.49100 -103.23780 6087 ft 160 kts 291°
2026-04-22 03:18 20.49551 -103.24850 5896 ft 157 kts 291°
2026-04-22 03:18 20.49998 -103.25912 5702 ft 157 kts 291°
2026-04-22 03:19 20.50443 -103.26971 5510 ft 156 kts 291°
2026-04-22 03:19 20.50887 -103.28028 5312 ft 156 kts 291°
2026-04-22 03:19 20.51332 -103.29084 5128 ft 156 kts 291°
2026-04-22 03:19 20.51757 -103.30101 5029 ft 137 kts 293°
2026-04-22 03:20 20.52066 -103.30847 5031 ft 87 kts 294°
2026-04-22 03:20 20.52272 -103.31340 5027 ft 44 kts 298°
2026-04-22 03:20 20.52443 -103.31543 5029 ft 19 kts 326°
2026-04-22 03:20 20.52511 -103.31588 5029 ft 7 kts 334°
2026-04-22 03:21 20.52539 -103.31593 5029 ft 0 kts 358°
2026-04-22 03:22 20.52557 -103.31584 5029 ft 6 kts 28°
2026-04-22 03:22 20.52617 -103.31551 5029 ft 14 kts 26°
2026-04-22 03:22 20.52714 -103.31510 5029 ft 16 kts 20°
2026-04-22 03:22 20.52749 -103.31429 5029 ft 14 kts 105°
2026-04-22 03:23 20.52715 -103.31335 5029 ft 14 kts 114°
2026-04-22 03:23 20.52673 -103.31238 5029 ft 15 kts 115°
2026-04-22 03:23 20.52631 -103.31137 5027 ft 16 kts 114°
2026-04-22 03:23 20.52586 -103.31031 5029 ft 16 kts 114°
2026-04-22 03:24 20.52540 -103.30920 5029 ft 16 kts 114°
2026-04-22 03:24 20.52494 -103.30809 5029 ft 16 kts 114°
2026-04-22 03:24 20.52451 -103.30703 5029 ft 15 kts 113°
2026-04-22 03:24 20.52410 -103.30605 5029 ft 14 kts 115°
2026-04-22 03:25 20.52367 -103.30505 5029 ft 14 kts 114°
2026-04-22 03:25 20.52329 -103.30414 5029 ft 14 kts 114°
2026-04-22 03:25 20.52290 -103.30321 5029 ft 12 kts 113°
2026-04-22 03:25 20.52296 -103.30249 5029 ft 10 kts 49°
2026-04-22 03:26 20.52346 -103.30227 5029 ft 7 kts 19°
2026-04-22 03:26 20.52382 -103.30213 5029 ft 2 kts 26°
2026-04-22 03:26 20.52392 -103.30197 5029 ft 3 kts 73°
2026-04-22 03:26 20.52391 -103.30164 5029 ft 6 kts 97°
2026-04-22 03:27 20.52385 -103.30134 5029 ft 0 kts 104°
2026-04-22 03:27 20.52385 -103.30133 5029 ft 1 kts 106°
2026-04-22 03:27 20.52374 -103.30100 5029 ft 6 kts 99°
2026-04-22 03:28 20.52384 -103.30084 5029 ft 0 kts 47°
2026-04-22 03:28 20.52387 -103.30083 5029 ft 0 kts 25°
2026-04-22 03:28 20.52401 -103.30081 5029 ft 4 kts 14°
2026-04-22 03:28 20.52419 -103.30075 5029 ft 2 kts 17°
2026-04-22 03:29 20.52426 -103.30073 5029 ft 1 kts 19°
2026-04-22 03:29 20.52432 -103.30071 5029 ft 0 kts 18°
2026-04-22 03:29 20.52434 -103.30070 5029 ft 0 kts 18°